Regional Weather Roundup
Issued by NWS Upton, NY

Current Version | Previous Version | Text Only | Print | Product List | Glossary Off
Versions: 1 2 3 4 5 6 7 8 9 10 11 12 13 14 15 16 17 18 19 20 21 22 23 24 25 26 27 28 29 30 31 32 33 34 35 36 37 38 39 40 41 42 43 44 45 46 47 48 49 50
000 ASUS41 KOKX 262005 RWROKX REGIONAL WEATHER ROUNDUP NATIONAL WEATHER SERVICE NEW YORK NY 300 PM EST FRI DEC 26 2014 NOTE: "FAIR" INDICATES FEW OR NO CLOUDS BELOW 12,000 FEET WITH NO SIGNIFICANT WEATHER AND/OR OBSTRUCTIONS TO VISIBILITY. NYZ071-072-176-178-NJZ106-104-262100- NEW YORK CITY METRO AREA CITY SKY/WX TMP DP RH WIND PRES REMARKS CENTRAL PARK SUNNY 49 27 42 W7 30.21S LAGUARDIA APRT MOSUNNY 49 28 44 W7 30.18F KENNEDY INTL MOSUNNY 50 28 42 W9 30.20S NEWARK/LIBERTY MOSUNNY 51 28 41 W9 30.19S BRNX BOT. GARD N/A N/A N/A N/A W1 30.21R TETERBORO SUNNY 50 29 44 VRB5 30.18S $$ NYZ177-179-078>081-262100- LONG ISLAND NEW YORK CITY SKY/WX TMP DP RH WIND PRES REMARKS FARMINGDALE SUNNY 50 29 44 NW7 30.18F ISLIP MOSUNNY 50 30 46 NW9 30.16S SHIRLEY SUNNY 49 30 48 NW8 30.18F WESTHAMPTON SUNNY 50 30 46 NW9 30.18F MONTAUK POINT N/A 48 34 58 W8 30.17S $$ NYZ052-065-067-262100- HUDSON VALLEY CITY SKY/WX TMP DP RH WIND PRES REMARKS WHITE PLAINS SUNNY 48 28 46 NW7 30.16F NEWBURGH SUNNY 48 32 53 NW6 30.16F MONTGOMERY SUNNY 50 28 42 NW5 30.15F POUGHKEEPSIE SUNNY 50 28 42 CALM 30.15F ALBANY MOSUNNY 46 29 51 NW8 30.17F $$ NJZ001-105-106-008-010-013-015-019>022-104-262100- NEW JERSEY CITY SKY/WX TMP DP RH WIND PRES REMARKS NEWARK/LIBERTY MOSUNNY 51 28 41 W9 30.19S TETERBORO SUNNY 50 29 44 VRB5 30.18S CALDWELL SUNNY 49 27 42 W6 30.19S MORRISTOWN SUNNY 52 30 43 NW7 30.19F SOMERVILLE SUNNY 50 29 44 VRB3 30.19S SUSSEX SUNNY 48 27 44 W3 30.17F ANDOVER NOT AVBL TRENTON SUNNY 48 29 47 W7 30.20S MILLVILLE SUNNY 50 32 50 W9 30.24S ATLANTIC CITY SUNNY 50 30 46 W9 30.23S WRIGHTSTOWN SUNNY 49 30 48 W10 30.20S TOMS RIVER SUNNY 50 30 46 W12 30.22S BELMAR SUNNY 48 28 46 W7 30.20S $$ PAZ047>061-062-071-262100- EASTERN PENNSYLVANIA CITY SKY/WX TMP DP RH WIND PRES REMARKS PHILADELPHIA MOSUNNY 50 30 46 SW12 30.23F ALLENTOWN SUNNY 48 28 46 W5 30.20R SCRANTON SUNNY 45 28 51 SW9 30.17S $$ CTZ002-004>006-009-010-012-RIZ004-006-007-MAZ004-011-015-262100- SOUTHERN NEW ENGLAND IN CT CITY SKY/WX TMP DP RH WIND PRES REMARKS BRADLEY INTL MOSUNNY 50 28 42 W6 30.15R HARTFORD SUNNY 49 28 44 SW9 30.16S DANBURY SUNNY 48 27 44 NW5 30.17S WTRBRY/OXFORD SUNNY 46 28 49 NW7 30.15F BRIDGEPORT SUNNY 48 35 60 SW9 30.17S MERIDEN SUNNY 50 29 44 NW6 30.16S NEW HAVEN SUNNY 48 35 60 SW9 30.17S CHESTER FAIR 48 30 49 NW6 30.15S GROTON SUNNY 49 30 48 NW9 30.15S WILLIMANTIC SUNNY 48 29 47 W8 30.15R IN RI CITY SKY/WX TMP DP RH WIND PRES REMARKS PROVIDENCE MOSUNNY 50 30 46 W10 30.13S BLOCK ISLAND SUNNY 46 34 61 W13G20 30.14S WESTERLY SUNNY 50 30 46 VRB5 30.15S IN MA CITY SKY/WX TMP DP RH WIND PRES REMARKS BOSTON MOSUNNY 49 30 48 W13 30.11S WORCESTER SUNNY 44 28 53 W13 30.10S WESTFIELD SUNNY 49 27 42 NW10 30.15S PROVINCETOWN SUNNY 48 34 57 W8 30.12S NANTUCKET SUNNY 47 34 60 W14 30.13S $$ ANZ330-335-338-340-345-350-353-355-262100- COASTAL MARINE OBSERVATIONS STATION/POSITION TIME SKY/WX TEMP WIND PRES VSBY WAVE AIR SEA DIR/SP/G HT/PER (UTC) (F) (DEG/KT/KT) (MB) (MI) (FT/S) NY HARB ENTRANCE 2000 46 45 280/ 6/ 8 1023.1 2/13 4S FIRE IS 2000 47 N/A 3/13 20S FIRE ISLAND 1900 47 49 1023.0 3/ 5 23SW MTP 2000 N/A 3/ 5 HUDSON CANYON 2000 46 55 290/ 14/ 17 1022.6 4/ 6 EXECUTION ROCKS 2000 58 42 290/ 4/ 8 N/A WESTERN LI SOUND 2000 46 190/ 4/ 6 N/A 0 CENTRAL LI SOUND 1900 44 44 240/ 12/ 14 N/A 1/ 3 EASTERN LI SOUND NOT AVBL ROBBINS REEF 2000 48 1021.1 $$ >>>>>>>>>>>>>>>>>>>>>>>>>>>> KEY <<<<<<<<<<<<<<<<<<<<<<<<<<< > < > SKY/WX - SKY CONDITION/PRESENT WEATHER < > TMP - TEMPERATURE IN FAHRENHEIT < > DP - DEWPOINT IN FAHRENHEIT < > RH - RELATIVE HUMIDITY IN PERCENT < > WIND - DIRECTION AND SPEED IN MPH < > PRES - MEAN SEA LEVEL PRESSURE IN INCHES OF HG < > WCI - WIND CHILL INDEX < > VSB - VISIBILITY IN MILES < > HX - HEAT INDEX < > TC - TEMPERATURE IN CELSIUS < > VRB - VARIABLE WIND DIRECTION < > < >>>>>>>>>>>>>>>>>>>>>>>>>>>> KEY <<<<<<<<<<<<<<<<<<<<<<<<<<<

USA.gov is the U.S. government's official web portal to all federal, state and local government web resources and services.